Date String (YYYY-MM-DD hh:mm:ss) UTC,Instrument flags,absolute air pressure of the measurement (hPa),sample flow rate (lpm),inlet stack bypass flow (lpm),air temperature of the measurement (°C),ambient temperature measured by the external sensor (°C),aerosol sample conditioner tube jacket temperature (°C),OPC LED temperature (°C),internal box temperature (°C),relative humidity of the measurement (%),span deviation,mass concentration of particles derived from Lorenz-Mie calculation of OPC scattering (μg/m³),mass concentration of particles derived from Lorenz-Mie calculation of OPC scattering (μg/m³),mass concentration of particles derived from Lorenz-Mie calculation of OPC scattering (μg/m³)
DateTimeUTC,F1_M11,P_M11,Q1_M11,Q2_M11,T1_M11,T2_M11,T3_M11,T4_M11,T5_M11,U1_M11,ZSPAN_M11,X0_M11,X2_M11,X1_M11
2023-08-06 22:00:00,SystemResetWarning,0836.9,5.00,000.00,029.5,028.3,000.0,038.0,031.2,31.5,-002.0,0013.74,0008.28,0007.75
2023-08-06 22:01:00,SystemResetWarning,0837.0,4.99,000.00,029.5,028.4,000.0,038.0,031.2,31.7,-001.9,0013.24,0008.35,0007.81
2023-08-06 22:02:00,SystemResetWarning,0837.1,5.00,000.00,029.6,028.4,000.0,038.1,031.3,31.3,-001.6,0013.20,0008.41,0007.87
2023-08-06 22:03:00,SystemResetWarning,0837.2,5.00,000.00,029.6,028.5,000.0,038.1,031.3,31.0,-001.4,0012.53,0008.46,0007.92
2023-08-06 22:04:00,SystemResetWarning,0837.2,5.00,000.00,029.6,027.4,000.0,038.0,031.2,31.0,-001.2,0012.50,0008.49,0007.94
2023-08-06 22:05:00,SystemResetWarning,0837.1,5.00,000.00,029.5,025.9,000.0,037.9,030.9,31.2,-001.4,0012.55,0008.50,0007.96
2023-08-06 22:06:00,SystemResetWarning,0837.0,5.00,000.00,029.5,025.5,000.0,037.8,030.7,31.6,-002.0,0012.65,0008.53,0007.97
2023-08-06 22:07:00,SystemResetWarning,0836.9,5.01,000.00,029.3,025.7,000.0,037.8,030.6,31.8,-002.1,0012.73,0008.56,0007.99
2023-08-06 22:08:00,SystemResetWarning,0837.0,5.01,000.00,029.3,026.0,000.0,037.9,030.6,31.7,-001.9,0012.91,0008.61,0008.03
2023-08-06 22:09:00,SystemResetWarning,0837.2,4.99,000.00,029.3,026.4,000.0,037.9,030.7,31.7,-001.3,0012.31,0008.65,0008.05
2023-08-06 22:10:00,SystemResetWarning,0837.2,5.00,000.00,029.3,026.8,000.0,037.9,030.8,31.8,-001.3,0011.88,0008.66,0008.06
2023-08-06 22:11:00,SystemResetWarning,0837.2,5.00,000.00,029.3,027.1,000.0,037.9,030.8,31.6,-001.1,0011.89,0008.66,0008.08
2023-08-06 22:12:00,SystemResetWarning,0837.2,5.01,000.00,029.3,027.3,000.0,037.9,030.9,31.3,-000.8,0011.93,0008.69,0008.09
2023-08-06 22:13:00,SystemResetWarning,0837.2,5.00,000.00,029.3,027.5,000.0,037.9,030.9,31.8,-000.8,0012.03,0008.71,0008.08
2023-08-06 22:14:00,SystemResetWarning,0837.2,5.00,000.00,029.3,027.7,000.0,037.9,031.0,32.2,-001.0,0012.10,0008.72,0008.06
2023-08-06 22:15:00,SystemResetWarning,0837.2,5.00,000.00,029.3,027.8,000.0,037.9,031.0,32.3,-000.9,0012.07,0008.71,0008.05
2023-08-06 22:16:00,SystemResetWarning,0837.2,4.99,000.00,029.4,028.0,000.0,037.9,031.0,32.1,-000.8,0012.78,0008.69,0008.03
2023-08-06 22:17:00,SystemResetWarning,0837.2,4.99,000.00,029.4,028.1,000.0,037.9,031.1,32.2,-000.7,0013.12,0008.65,0008.01
2023-08-06 22:18:00,SystemResetWarning,0837.2,5.00,000.00,029.4,028.1,000.0,037.9,031.1,31.9,-000.6,0013.27,0008.61,0007.98
2023-08-06 22:19:00,SystemResetWarning,0837.2,5.00,000.00,029.4,028.2,000.0,038.0,031.1,31.7,-000.7,0013.25,0008.57,0007.95
2023-08-06 22:20:00,SystemResetWarning,0837.0,5.01,000.00,029.5,028.2,000.0,038.0,031.1,31.6,-000.9,0013.14,0008.54,0007.95
2023-08-06 22:21:00,SystemResetWarning,0836.8,5.01,000.00,029.5,028.3,000.0,038.0,031.2,31.5,-000.9,0013.13,0008.54,0007.95
2023-08-06 22:22:00,SystemResetWarning,0836.5,5.01,000.00,029.5,028.3,000.0,038.0,031.2,31.6,-001.0,0013.19,0008.55,0007.94
2023-08-06 22:23:00,SystemResetWarning,0836.1,4.99,000.00,029.5,028.4,000.0,038.0,031.2,31.6,-001.3,0013.16,0008.51,0007.92
2023-08-06 22:24:00,SystemResetWarning,0835.8,5.00,000.00,029.6,028.4,000.0,038.1,031.2,32.1,-001.5,0013.17,0008.48,0007.90
2023-08-06 22:25:00,SystemResetWarning,0835.6,4.99,000.00,029.6,028.5,000.0,038.1,031.3,32.4,-001.5,0013.10,0008.48,0007.90
2023-08-06 22:26:00,SystemResetWarning,0835.4,5.00,000.00,029.6,028.5,000.0,038.1,031.3,32.0,-001.5,0013.03,0008.48,0007.90
2023-08-06 22:27:00,SystemResetWarning,0835.1,5.00,000.00,029.6,028.5,000.0,038.1,031.3,32.1,-001.7,0012.66,0008.45,0007.89
2023-08-06 22:28:00,SystemResetWarning,0835.3,5.00,000.00,029.7,028.5,000.0,038.1,031.3,32.2,-001.3,0012.28,0008.40,0007.89
2023-08-06 22:29:00,SystemResetWarning,0835.3,5.00,000.00,029.7,028.6,000.0,038.2,031.3,32.4,-001.4,0012.15,0008.38,0007.88
2023-08-06 22:30:00,SystemResetWarning,0835.6,5.00,000.00,029.7,028.6,000.0,038.2,031.3,32.4,-001.4,0012.11,0008.40,0007.86
2023-08-06 22:31:00,SystemResetWarning,0835.9,5.00,000.00,029.7,028.5,000.0,038.2,031.3,32.2,-001.4,0012.41,0008.39,0007.84
2023-08-06 22:32:00,SystemResetWarning,0836.3,4.99,000.00,029.7,026.9,000.0,038.1,031.1,32.4,-001.3,0012.41,0008.34,0007.81
2023-08-06 22:33:00,SystemResetWarning,0836.5,5.01,000.00,029.6,025.6,000.0,037.9,030.9,32.6,-001.4,0012.50,0008.30,0007.80
2023-08-06 22:34:00,SystemResetWarning,0836.6,5.00,000.00,029.5,025.3,000.0,037.9,030.6,33.1,-001.3,0012.70,0008.31,0007.81
2023-08-06 22:35:00,SystemResetWarning,0836.5,5.01,000.00,029.4,025.6,000.0,038.0,030.6,33.7,-001.4,0012.95,0008.32,0007.81
2023-08-06 22:36:00,SystemResetWarning,0836.4,5.00,000.00,029.3,026.0,000.0,038.0,030.7,34.3,-001.4,0012.96,0008.30,0007.80
2023-08-06 22:37:00,SystemResetWarning,0836.2,4.99,000.00,029.3,026.4,000.0,038.0,030.8,34.6,-001.4,0012.92,0008.25,0007.76
2023-08-06 22:38:00,SystemResetWarning,0836.3,5.00,000.00,029.3,026.8,000.0,038.0,030.8,34.6,-001.5,0013.02,0008.27,0007.74
2023-08-06 22:39:00,SystemResetWarning,0836.3,5.01,000.00,029.3,027.1,000.0,038.0,030.9,34.3,-001.4,0012.57,0008.27,0007.72
2023-08-06 22:40:00,SystemResetWarning,0836.0,5.01,000.00,029.3,027.3,000.0,038.0,030.9,34.5,-001.1,0012.56,0008.30,0007.71
2023-08-06 22:41:00,SystemResetWarning,0835.7,5.00,000.00,029.4,027.6,000.0,038.0,031.0,34.3,-001.2,0012.52,0008.27,0007.69
2023-08-06 22:42:00,SystemResetWarning,0835.7,5.00,000.00,029.4,027.7,000.0,038.0,031.0,33.8,-001.3,0012.31,0008.26,0007.70
2023-08-06 22:43:00,SystemResetWarning,0836.0,5.00,000.00,029.4,027.9,000.0,038.0,031.1,32.7,-001.4,0012.21,0008.25,0007.70
2023-08-06 22:44:00,SystemResetWarning,0836.1,5.01,000.00,029.4,028.0,000.0,038.0,031.1,32.3,-001.4,0012.10,0008.25,0007.68
2023-08-06 22:45:00,SystemResetWarning,0836.1,4.99,000.00,029.5,028.1,000.0,038.0,031.1,33.1,-001.5,0011.92,0008.25,0007.67
2023-08-06 22:46:00,SystemResetWarning,0836.1,4.99,000.00,029.5,028.2,000.0,038.0,031.2,33.8,-001.1,0011.70,0008.28,0007.68
2023-08-06 22:47:00,SystemResetWarning,0836.1,4.99,000.00,029.5,028.3,000.0,038.1,031.2,33.0,-001.3,0011.68,0008.32,0007.68
2023-08-06 22:48:00,SystemResetWarning,0836.1,5.00,000.00,029.6,028.4,000.0,038.1,031.2,33.5,-001.5,0011.67,0008.32,0007.69
2023-08-06 22:49:00,SystemResetWarning,0836.1,5.01,000.00,029.6,028.4,000.0,038.1,031.2,32.7,-001.2,0011.59,0008.32,0007.71
2023-08-06 22:50:00,SystemResetWarning,0836.1,5.01,000.00,029.6,028.4,000.0,038.1,031.2,33.0,-001.7,0011.56,0008.37,0007.73
2023-08-06 22:51:00,SystemResetWarning,0836.0,5.01,000.00,029.6,028.5,000.0,038.1,031.3,33.5,-002.1,0011.61,0008.38,0007.75
2023-08-06 22:52:00,SystemResetWarning,0836.1,4.99,000.00,029.6,028.3,000.0,038.1,031.3,32.8,-001.7,0011.74,0008.41,0007.77
2023-08-06 22:53:00,SystemResetWarning,0836.1,4.99,000.00,029.6,026.6,000.0,038.0,031.0,33.5,-001.6,0011.55,0008.44,0007.81
2023-08-06 22:54:00,SystemResetWarning,0836.1,5.01,000.00,029.6,025.6,000.0,037.9,030.8,32.9,-001.4,0011.58,0008.49,0007.85
2023-08-06 22:55:00,SystemResetWarning,0836.1,5.01,000.00,029.5,025.5,000.0,037.9,030.7,32.7,-001.1,0011.56,0008.50,0007.87
2023-08-06 22:56:00,SystemResetWarning,0836.1,5.00,000.00,029.4,025.8,000.0,037.9,030.6,32.3,-000.6,0011.40,0008.48,0007.89
2023-08-06 22:57:00,SystemResetWarning,0836.2,4.99,000.00,029.3,026.2,000.0,037.9,030.7,33.0,0000.0,0011.36,0008.48,0007.91
2023-08-06 22:58:00,SystemResetWarning,0836.3,4.99,000.00,029.3,026.6,000.0,037.9,030.8,33.3,0000.0,0011.97,0008.51,0007.93
2023-08-06 22:59:00,SystemResetWarning,0836.3,5.00,000.00,029.3,026.9,000.0,037.9,030.8,32.3,-000.3,0012.62,0008.53,0007.94
